Powrót do katalogu

STARLINK-35233

AktywnyŁącznośćVLEO
NORAD 65678·PAYLOAD·🇺🇸 United States

Wystrzelony Sep 21, 2025 z Cape Canaveral Space Force Station

Loading…

Następne Przeloty (najbliższe 24 godziny)

TLE

ŚwieżeSource: CelesTrak SupGP

Epoka: Sep 14, 2026, 23:09 UTC

1 65678C 25212C   26257.96506944 -.00039348  00000+0 -12649-2 0  2578
2 65678  53.1576 185.8551 0001412 102.8315 189.7383 15.31733118    15

Śledź STARLINK-35233 w czasie rzeczywistym z AllMySat

Download on the App Store